• en France
  • Liste des pays
  • À 7 jours
  • Température de l'eau
  • Carte satellitaire
  • Carte météo
  • Widgets météo
  • user-avatar
    Se connecter

    Météo par heure à Brazzaville

    Ce jour, 20 Août, Lundi

    Heure Température Précipitation Vent Pression Humidité
    00:00 +27°C° 0 mm 3 m/s 736 mmHg 64%
    01:00 +26°C° 0 mm 3 m/s 736 mmHg 70%
    02:00 +25°C° 0 mm 3 m/s 736 mmHg 72%
    03:00 +25°C° 0 mm 3 m/s 736 mmHg 74%
    04:00 +25°C° 0 mm 2 m/s 736 mmHg 75%
    05:00 +25°C° 0 mm 3 m/s 736 mmHg 75%
    06:00 +25°C° 0 mm 3 m/s 736 mmHg 75%
    07:00 +25°C° 0 mm 3 m/s 737 mmHg 75%
    08:00 +26°C° 0 mm 3 m/s 737 mmHg 69%
    09:00 +27°C° 0 mm 3 m/s 737 mmHg 64%
    10:00 +29°C° 0 mm 3 m/s 737 mmHg 58%
    11:00 +31°C° 0 mm 3 m/s 737 mmHg 51%
    12:00 +33°C° 0 mm 4 m/s 736 mmHg 45%
    13:00 +35°C° 0 mm 4 m/s 735 mmHg 39%
    14:00 +36°C° 0 mm 3 m/s 734 mmHg 38%
    15:00 +36°C° 0 mm 3 m/s 733 mmHg 36%
    16:00 +36°C° 0 mm 3 m/s 733 mmHg 35%
    17:00 +35°C° 0 mm 3 m/s 733 mmHg 37%
    18:00 +34°C° 0 mm 2 m/s 733 mmHg 40%
    19:00 +32°C° 0 mm 2 m/s 733 mmHg 43%
    20:00 +31°C° 0 mm 2 m/s 734 mmHg 44%
    21:00 +30°C° 0 mm 2 m/s 735 mmHg 46%
    22:00 +30°C° 0 mm 2 m/s 735 mmHg 48%
    23:00 +29°C° 0 mm 2 m/s 735 mmHg 50%

    Demain, 21 Août, Mardi

    Heure Température Précipitation Vent Pression Humidité
    00:00 +29°C° 0 mm 3 m/s 735 mmHg 52%
    01:00 +28°C° 0 mm 3 m/s 735 mmHg 55%
    02:00 +28°C° 0 mm 3 m/s 735 mmHg 58%
    03:00 +27°C° 0 mm 3 m/s 735 mmHg 60%
    04:00 +26°C° 0 mm 3 m/s 735 mmHg 63%
    05:00 +26°C° 0 mm 3 m/s 735 mmHg 63%
    06:00 +26°C° 0 mm 3 m/s 735 mmHg 63%
    07:00 +26°C° 0 mm 4 m/s 736 mmHg 63%
    08:00 +28°C° 0 mm 4 m/s 736 mmHg 56%
    09:00 +30°C° 0 mm 4 m/s 736 mmHg 49%
    10:00 +33°C° 0 mm 4 m/s 737 mmHg 42%
    11:00 +35°C° 0 mm 4 m/s 736 mmHg 38%
    12:00 +36°C° 0 mm 4 m/s 735 mmHg 34%
    13:00 +38°C° 0 mm 3 m/s 734 mmHg 30%
    14:00 +38°C° 0 mm 3 m/s 734 mmHg 30%
    15:00 +38°C° 0 mm 3 m/s 733 mmHg 30%
    16:00 +38°C° 0 mm 3 m/s 732 mmHg 30%
    17:00 +36°C° 0 mm 3 m/s 732 mmHg 33%
    18:00 +35°C° 0 mm 2 m/s 733 mmHg 36%
    19:00 +32°C° 0 mm 2 m/s 733 mmHg 39%
    20:00 +32°C° 0 mm 2 m/s 734 mmHg 40%
    21:00 +31°C° 0 mm 2 m/s 734 mmHg 42%
    22:00 +30°C° 0 mm 3 m/s 735 mmHg 44%
    23:00 +30°C° 0 mm 3 m/s 735 mmHg 47%

    Après-demain, 22 Août, Mercredi

    Heure Température Précipitation Vent Pression Humidité
    00:00 +29°C° 0 mm 3 m/s 735 mmHg 50%
    01:00 +28°C° 0 mm 3 m/s 735 mmHg 53%
    02:00 +28°C° 0 mm 3 m/s 734 mmHg 56%
    03:00 +27°C° 0 mm 3 m/s 734 mmHg 60%
    04:00 +26°C° 0 mm 3 m/s 734 mmHg 63%
    05:00 +26°C° 0 mm 3 m/s 734 mmHg 65%
    06:00 +26°C° 0 mm 3 m/s 735 mmHg 67%
    07:00 +25°C° 0 mm 4 m/s 735 mmHg 69%
    08:00 +27°C° 0 mm 4 m/s 736 mmHg 62%
    09:00 +29°C° 0 mm 4 m/s 736 mmHg 55%
    10:00 +30°C° 0 mm 4 m/s 737 mmHg 49%
    11:00 +33°C° 0 mm 4 m/s 736 mmHg 44%
    12:00 +34°C° 0 mm 4 m/s 735 mmHg 38%
    13:00 +36°C° 0 mm 4 m/s 734 mmHg 33%
    14:00 +36°C° 0 mm 4 m/s 734 mmHg 32%
    15:00 +36°C° 0 mm 4 m/s 733 mmHg 31%
    16:00 +37°C° 0 mm 4 m/s 732 mmHg 30%
    17:00 +35°C° 0 mm 3 m/s 733 mmHg 33%
    18:00 +34°C° 0 mm 3 m/s 733 mmHg 36%
    19:00 +31°C° 0 mm 2 m/s 734 mmHg 39%
    20:00 +30°C° 0 mm 2 m/s 735 mmHg 41%
    21:00 +30°C° 0 mm 3 m/s 735 mmHg 44%
    22:00 +29°C° 0 mm 3 m/s 736 mmHg 46%
    23:00 +28°C° 0 mm 3 m/s 735 mmHg 50%

    23 Août, Jeudi

    Heure Température Précipitation Vent Pression Humidité
    00:00 +27°C° 0 mm 3 m/s 735 mmHg 53%
    01:00 +26°C° 0 mm 3 m/s 735 mmHg 57%
    02:00 +26°C° 0 mm 3 m/s 735 mmHg 60%
    03:00 +25°C° 0 mm 3 m/s 735 mmHg 63%
    04:00 +24°C° 0 mm 3 m/s 734 mmHg 67%
    05:00 +24°C° 0 mm 3 m/s 735 mmHg 68%
    06:00 +24°C° 0 mm 3 m/s 735 mmHg 68%
    07:00 +24°C° 0 mm 3 m/s 736 mmHg 69%
    08:00 +26°C° 0 mm 3 m/s 736 mmHg 60%
    09:00 +29°C° 0 mm 3 m/s 736 mmHg 50%
    10:00 +31°C° 0 mm 3 m/s 737 mmHg 41%
    11:00 +34°C° 0 mm 3 m/s 736 mmHg 35%
    12:00 +35°C° 0 mm 3 m/s 735 mmHg 29%
    13:00 +37°C° 0 mm 3 m/s 734 mmHg 23%
    14:00 +37°C° 0 mm 3 m/s 733 mmHg 23%
    15:00 +37°C° 0 mm 3 m/s 732 mmHg 22%
    16:00 +37°C° 0 mm 3 m/s 732 mmHg 21%
    17:00 +36°C° 0 mm 3 m/s 732 mmHg 24%
    18:00 +34°C° 0 mm 2 m/s 733 mmHg 26%
    19:00 +31°C° 0 mm 2 m/s 733 mmHg 29%
    20:00 +30°C° 0 mm 2 m/s 734 mmHg 30%
    21:00 +30°C° 0 mm 2 m/s 734 mmHg 32%
    22:00 +29°C° 0 mm 2 m/s 735 mmHg 33%
    23:00 +28°C° 0 mm 2 m/s 735 mmHg 36%

    24 Août, Vendredi

    Heure Température Précipitation Vent Pression Humidité
    00:00 +28°C° 0 mm 2 m/s 734 mmHg 38%
    01:00 +27°C° 0 mm 2 m/s 734 mmHg 40%
    02:00 +27°C° 0 mm 2 m/s 734 mmHg 45%
    03:00 +26°C° 0 mm 2 m/s 734 mmHg 49%
    04:00 +25°C° 0 mm 2 m/s 734 mmHg 53%
    05:00 +25°C° 0 mm 2 m/s 734 mmHg 55%
    06:00 +25°C° 0 mm 2 m/s 735 mmHg 57%
    07:00 +25°C° 0 mm 2 m/s 735 mmHg 58%
    08:00 +27°C° 0 mm 2 m/s 736 mmHg 50%
    09:00 +30°C° 0 mm 2 m/s 736 mmHg 41%
    10:00 +32°C° 0 mm 2 m/s 736 mmHg 32%
    11:00 +35°C° 0 mm 2 m/s 735 mmHg 28%
    12:00 +37°C° 0 mm 2 m/s 734 mmHg 24%
    13:00 +39°C° 0 mm 3 m/s 733 mmHg 20%
    14:00 +39°C° 0 mm 2 m/s 732 mmHg 20%
    15:00 +39°C° 0 mm 2 m/s 732 mmHg 20%
    16:00 +39°C° 0 mm 2 m/s 731 mmHg 20%
    17:00 +37°C° 0 mm 2 m/s 732 mmHg 21%
    18:00 +36°C° 0 mm 2 m/s 732 mmHg 23%
    19:00 +34°C° 0 mm 2 m/s 733 mmHg 25%
    20:00 +32°C° 0 mm 2 m/s 733 mmHg 25%
    21:00 +32°C° 0 mm 2 m/s 734 mmHg 26%
    22:00 +31°C° 0 mm 2 m/s 734 mmHg 26%
    23:00 +30°C° 0 mm 2 m/s 734 mmHg 28%

    25 Août, Samedi

    Heure Température Précipitation Vent Pression Humidité
    00:00 +30°C° 0 mm 2 m/s 734 mmHg 31%
    01:00 +29°C° 0 mm 2 m/s 734 mmHg 33%
    02:00 +28°C° 0 mm 2 m/s 734 mmHg 37%
    03:00 +28°C° 0 mm 2 m/s 734 mmHg 40%
    04:00 +27°C° 0 mm 2 m/s 734 mmHg 44%
    05:00 +27°C° 0 mm 2 m/s 735 mmHg 47%
    06:00 +27°C° 0 mm 2 m/s 735 mmHg 50%
    07:00 +26°C° 0 mm 2 m/s 736 mmHg 53%
    08:00 +28°C° 0 mm 2 m/s 736 mmHg 49%
    09:00 +29°C° 0 mm 2 m/s 736 mmHg 45%
    10:00 +30°C° 0 mm 2 m/s 737 mmHg 41%
    11:00 +33°C° 0 mm 3 m/s 736 mmHg 38%
    12:00 +34°C° 0 mm 3 m/s 735 mmHg 35%
    13:00 +36°C° 0 mm 3 m/s 734 mmHg 32%
    14:00 +36°C° 0 mm 3 m/s 734 mmHg 32%
    15:00 +36°C° 0 mm 3 m/s 733 mmHg 32%
    16:00 +36°C° 0 mm 3 m/s 733 mmHg 32%
    17:00 +35°C° 0 mm 3 m/s 733 mmHg 35%
    18:00 +32°C° 0 mm 2 m/s 733 mmHg 38%
    19:00 +31°C° 0 mm 2 m/s 734 mmHg 41%
    20:00 +31°C° 0 mm 2 m/s 734 mmHg 43%
    21:00 +30°C° 0 mm 2 m/s 735 mmHg 44%
    22:00 +30°C° 0 mm 2 m/s 735 mmHg 45%
    23:00 +29°C° 0 mm 2 m/s 735 mmHg 46%
    Voir plus